Location: Arbon
(43.0005°N, 0.7472°E)
Time: 20:36:04
(UTC+00:00)

Tiangong - Pass Details

Date: 29 September 2021
Orbit: 382 x 385 km, 41.5° (Epoch: 19 October)

Event Time Altitude Azimuth Distance (km) Brightness Sun altitude
Exits shadow 04:13:39 35° 173° (S) 629 2.0 -18.7°
Maximum altitude 04:13:52 36° 162° (SSE) 622 2.1 -18.6°
Drops below altitude 10° 04:16:48 10° 94° (E) 1,395 5.0 -18.1°
Sets 04:18:57 0° 85° (E) 2,249 6.6 -17.7°
